Flag for Morocco Weather past 2 weeks in Tangier, Morocco

Now
72 °F

Passing clouds.


Feels Like: 75 °F
Forecast: 67 / 77 °F
Wind: 12 mph from West

Location: Tanger Aerodrome

Current Time: Aug 1, 2014 at 4:15:07 AM

Latest Report: Aug 1, 2014 at 4:00 AM


Visibility: N/A

Pressure: 30.01 "Hg

Humidity: 65%

Dew point: 59 °F

Location of TangierLocation

Historic Weather in Tangier — Graph

°F

Tangier temperature yesterday

Maximum temperature yesterday: 79 °F (at 12:00 PM)
Minimum temperature yesterday: 70 °F (at 8:00 PM)
Average temperature yesterday: 74 °F

Past Weeks' High & Low Weather Summary

 TemperatureHumidityPressure
High90 °F (Jul 21, 3:30 PM)94% (Jul 19, 4:30 AM)30.12 "Hg (Jul 19, 4:30 AM)
Low59 °F (Jul 30, 6:00 AM)25% (Jul 21, 4:00 PM)29.86 "Hg (Jul 22, 4:30 PM)
Average73 °F69%29.98 "Hg
* Reported Jul 17 3:00 AM — Aug 1 3:30 AM, Tangier, Weather by CustomWeather, © 2014

Note: Actual official high and low records may vary slightly from our data, if they occured in-between our weather recording intervals... More about our weather records

Advertising

Tangier weather history for previous 24 hours

 ConditionsComfort  
Time TempWeatherWind HumidityBarometerVisibility
3:30 AM
Aug 1
72 °FPassing clouds.14 mph61%30.01 "HgN/A
3:00 AM72 °FPassing clouds.12 mph65%30.01 "HgN/A
2:30 AM72 °FPassing clouds.12 mph65%30.01 "Hg5 mi
2:00 AM72 °FPassing clouds.12 mph65%30.04 "Hg5 mi
1:30 AM72 °FPassing clouds.10 mph65%30.04 "Hg5 mi
1:00 AM72 °FPassing clouds.12 mph65%30.04 "Hg5 mi
12:30 AM72 °FPassing clouds.12 mph65%30.04 "Hg5 mi
12:00 AM72 °FPassing clouds.10 mph65%30.04 "Hg5 mi
11:30 PM
Jul 31
72 °FPassing clouds.9 mph65%30.04 "Hg5 mi
11:00 PM70 °FPassing clouds.9 mph69%30.04 "Hg5 mi
10:30 PM70 °FPassing clouds.9 mph69%30.04 "HgN/A
10:00 PM70 °FPassing clouds.9 mph69%30.04 "HgN/A
9:30 PM70 °FPassing clouds.9 mph69%30.04 "HgN/A
9:00 PM70 °FPassing clouds.9 mph69%30.04 "HgN/A
8:30 PM70 °FPassing clouds.9 mph73%30.01 "HgN/A
8:00 PM70 °FPassing clouds.7 mph69%30.01 "HgN/A
7:30 PM72 °FPassing clouds.8 mph65%30.01 "HgN/A
7:00 PM73 °FPassing clouds.9 mph65%30.01 "HgN/A
6:30 PM75 °FPassing clouds.10 mph61%30.01 "HgN/A
6:00 PM75 °FPassing clouds.12 mph61%30.01 "HgN/A
5:30 PM75 °FPassing clouds.12 mph61%30.01 "HgN/A
5:00 PM77 °FPassing clouds.13 mph54%30.01 "HgN/A
4:30 PM77 °FPassing clouds.13 mph54%30.01 "HgN/A
4:00 PM77 °FPassing clouds.13 mph54%30.01 "HgN/A
3:30 PM77 °FPassing clouds.13 mph54%30.01 "HgN/A
3:00 PM77 °FPassing clouds.13 mph57%30.01 "HgN/A
2:30 PM79 °FPassing clouds.14 mph54%30.04 "HgN/A
2:00 PM77 °FPassing clouds.14 mph54%30.04 "HgN/A
1:30 PM77 °FPassing clouds.15 mph54%30.04 "HgN/A
1:00 PM77 °FPassing clouds.14 mph54%30.04 "HgN/A
12:30 PM77 °FScattered clouds.14 mph54%30.04 "HgN/A
12:00 PM79 °FScattered clouds.15 mph51%30.04 "HgN/A
11:30 AM77 °FScattered clouds.14 mph54%30.04 "HgN/A
11:00 AM77 °FScattered clouds.13 mph54%30.04 "HgN/A
10:30 AM77 °FPartly sunny.13 mph54%30.04 "HgN/A
10:00 AM75 °FPartly sunny.15 mph57%30.04 "HgN/A
9:30 AM75 °FPartly sunny.15 mph57%30.04 "HgN/A
9:00 AM75 °FPartly sunny.13 mph57%30.04 "HgN/A
8:30 AM73 °FPartly sunny.14 mph65%30.04 "HgN/A
8:00 AM73 °FPartly sunny.13 mph65%30.04 "HgN/A
7:30 AM72 °FPartly sunny.9 mph73%30.04 "HgN/A
7:00 AM72 °FBroken clouds.9 mph73%30.01 "HgN/A
6:30 AM72 °FBroken clouds.6 mph73%30.01 "HgN/A
6:00 AM72 °FBroken clouds.6 mph73%30.01 "HgN/A
5:30 AM72 °FBroken clouds.7 mph73%29.98 "HgN/A
5:00 AM72 °FPartly cloudy.6 mph73%29.98 "Hg5 mi
4:30 AM72 °FPartly cloudy.6 mph73%29.98 "Hg5 mi
4:00 AM72 °FPartly cloudy.5 mph73%29.98 "HgN/A
Weather by CustomWeather, © 2014

See weather overviewHow to use our weather pages